When you browse on this site, cookies collect data to enhance your experience and personalize the content and advertising you see.
Visit our Privacy Policy to learn more. By continuing to use the site, you agree to this use of cookies and data.
  • In Hungary
  • List of Countries
  • For 7 days
  • Water Temperature
  • Weather Map
  • News
  • Weather Widgets
  • user-avatar
    Login

    Hourly Weather Matwica

    Today, 18 August, Sunday

    Time Temperature Precipitation Wind Pressure Humidity
    00:00 +18°C° 0 mm 2 mps 749 mmHg 79%
    01:00 +18°C° 0 mm 1 mps 749 mmHg 80%
    02:00 +18°C° 0 mm 1 mps 749 mmHg 81%
    03:00 +16°C° 0 mm 2 mps 749 mmHg 81%
    04:00 +16°C° 0 mm 2 mps 748 mmHg 82%
    05:00 +17°C° 0 mm 2 mps 748 mmHg 80%
    06:00 +18°C° 0 mm 2 mps 748 mmHg 78%
    07:00 +20°C° 0 mm 2 mps 748 mmHg 75%
    08:00 +21°C° 0 mm 3 mps 748 mmHg 69%
    09:00 +24°C° 0 mm 3 mps 748 mmHg 63%
    10:00 +25°C° 0 mm 4 mps 748 mmHg 57%
    11:00 +26°C° 0 mm 4 mps 748 mmHg 54%
    12:00 +27°C° 0 mm 4 mps 748 mmHg 52%
    13:00 +27°C° 0 mm 4 mps 748 mmHg 49%
    14:00 +27°C° 0 mm 4 mps 748 mmHg 51%
    15:00 +27°C° 0 mm 4 mps 747 mmHg 53%
    16:00 +27°C° 0 mm 4 mps 747 mmHg 55%
    17:00 +26°C° 0 mm 4 mps 747 mmHg 59%
    18:00 +25°C° 0 mm 3 mps 747 mmHg 62%
    19:00 +22°C° 0 mm 3 mps 747 mmHg 66%
    20:00 +22°C° 0 mm 3 mps 747 mmHg 66%
    21:00 +21°C° 0 mm 3 mps 747 mmHg 66%
    22:00 +21°C° 0 mm 3 mps 747 mmHg 66%
    23:00 +20°C° 0 mm 4 mps 747 mmHg 68%

    Tomorrow, 19 August, Monday

    Time Temperature Precipitation Wind Pressure Humidity
    00:00 +20°C° 0 mm 4 mps 747 mmHg 71%
    01:00 +20°C° 0 mm 4 mps 747 mmHg 73%
    02:00 +20°C° 0 mm 4 mps 747 mmHg 77%
    03:00 +19°C° 0 mm 3 mps 747 mmHg 82%
    04:00 +19°C° 0 mm 3 mps 747 mmHg 86%
    05:00 +20°C° 0 mm 3 mps 748 mmHg 84%
    06:00 +21°C° 0 mm 3 mps 748 mmHg 81%
    07:00 +22°C° 0 mm 3 mps 749 mmHg 79%
    08:00 +25°C° 0 mm 3 mps 749 mmHg 75%
    09:00 +26°C° 0 mm 3 mps 750 mmHg 71%
    10:00 +27°C° 0 mm 4 mps 750 mmHg 66%
    11:00 +27°C° 0 mm 3 mps 750 mmHg 66%
    12:00 +27°C° 0 mm 3 mps 750 mmHg 65%
    13:00 +27°C° 0 mm 3 mps 750 mmHg 64%
    14:00 +26°C° 0.6 mm 3 mps 750 mmHg 68%
    15:00 +25°C° 0.6 mm 3 mps 751 mmHg 71%
    16:00 +25°C° 0.6 mm 3 mps 751 mmHg 75%
    17:00 +22°C° 0.2 mm 3 mps 751 mmHg 79%
    18:00 +21°C° 0.2 mm 2 mps 751 mmHg 83%
    19:00 +20°C° 0.2 mm 2 mps 751 mmHg 87%
    20:00 +19°C° 0 mm 2 mps 752 mmHg 89%
    21:00 +19°C° 0 mm 2 mps 752 mmHg 91%
    22:00 +18°C° 0 mm 2 mps 753 mmHg 93%
    23:00 +18°C° 0 mm 2 mps 753 mmHg 93%

    Day after tomorrow, 20 August, Tuesday

    Time Temperature Precipitation Wind Pressure Humidity
    00:00 +17°C° 0 mm 2 mps 753 mmHg 93%
    01:00 +16°C° 0 mm 2 mps 754 mmHg 93%
    02:00 +16°C° 0 mm 2 mps 754 mmHg 92%
    03:00 +16°C° 0 mm 2 mps 754 mmHg 92%
    04:00 +16°C° 0 mm 1 mps 754 mmHg 91%
    05:00 +18°C° 0 mm 1 mps 755 mmHg 88%
    06:00 +19°C° 0 mm 1 mps 755 mmHg 84%
    07:00 +20°C° 0 mm 1 mps 755 mmHg 81%
    08:00 +21°C° 0 mm 1 mps 756 mmHg 73%
    09:00 +23°C° 0 mm 1 mps 756 mmHg 65%
    10:00 +25°C° 0 mm 1 mps 756 mmHg 57%
    11:00 +25°C° 0 mm 1 mps 756 mmHg 53%
    12:00 +26°C° 0 mm 1 mps 756 mmHg 49%
    13:00 +26°C° 0 mm 1 mps 756 mmHg 46%
    14:00 +26°C° 0 mm 1 mps 756 mmHg 46%
    15:00 +26°C° 0 mm 1 mps 756 mmHg 46%
    16:00 +26°C° 0 mm 1 mps 756 mmHg 47%
    17:00 +25°C° 0 mm 1 mps 756 mmHg 50%
    18:00 +23°C° 0 mm 1 mps 756 mmHg 53%
    19:00 +22°C° 0 mm 1 mps 756 mmHg 56%
    20:00 +22°C° 0 mm 1 mps 756 mmHg 57%
    21:00 +21°C° 0 mm 1 mps 756 mmHg 58%
    22:00 +20°C° 0 mm 2 mps 756 mmHg 60%
    23:00 +20°C° 0 mm 2 mps 756 mmHg 61%

    21 August, Wednesday

    Time Temperature Precipitation Wind Pressure Humidity
    00:00 +20°C° 0 mm 2 mps 755 mmHg 63%
    01:00 +20°C° 0 mm 3 mps 755 mmHg 64%
    02:00 +19°C° 0.2 mm 3 mps 755 mmHg 69%
    03:00 +19°C° 0.2 mm 2 mps 754 mmHg 74%
    04:00 +18°C° 0.2 mm 2 mps 754 mmHg 79%
    05:00 +18°C° 3.5 mm 3 mps 754 mmHg 85%
    06:00 +18°C° 3.5 mm 3 mps 754 mmHg 91%
    07:00 +18°C° 3.5 mm 3 mps 754 mmHg 97%
    08:00 +18°C° 1.5 mm 3 mps 754 mmHg 97%
    09:00 +18°C° 1.5 mm 3 mps 754 mmHg 97%
    10:00 +18°C° 1.5 mm 3 mps 754 mmHg 96%
    11:00 +18°C° 0.1 mm 4 mps 754 mmHg 95%
    12:00 +16°C° 0.1 mm 5 mps 754 mmHg 93%
    13:00 +16°C° 0.1 mm 6 mps 755 mmHg 91%
    14:00 +16°C° 0.1 mm 6 mps 755 mmHg 90%
    15:00 +15°C° 0.1 mm 6 mps 755 mmHg 88%
    16:00 +15°C° 0.1 mm 6 mps 756 mmHg 87%
    17:00 +15°C° 0 mm 5 mps 756 mmHg 88%
    18:00 +14°C° 0 mm 4 mps 757 mmHg 89%
    19:00 +14°C° 0 mm 3 mps 757 mmHg 89%
    20:00 +13°C° 0 mm 3 mps 757 mmHg 92%
    21:00 +13°C° 0 mm 3 mps 758 mmHg 94%
    22:00 +13°C° 0 mm 2 mps 758 mmHg 96%
    23:00 +13°C° 0 mm 2 mps 758 mmHg 96%

    22 August, Thursday

    Time Temperature Precipitation Wind Pressure Humidity
    00:00 +13°C° 0 mm 2 mps 758 mmHg 95%
    01:00 +13°C° 0 mm 2 mps 759 mmHg 95%
    02:00 +12°C° 0 mm 2 mps 759 mmHg 95%
    03:00 +12°C° 0 mm 2 mps 758 mmHg 96%
    04:00 +12°C° 0 mm 2 mps 758 mmHg 96%
    05:00 +13°C° 0 mm 2 mps 759 mmHg 93%
    06:00 +14°C° 0 mm 2 mps 759 mmHg 89%
    07:00 +15°C° 0 mm 2 mps 759 mmHg 86%
    08:00 +17°C° 0 mm 2 mps 759 mmHg 78%
    09:00 +18°C° 0 mm 2 mps 759 mmHg 71%
    10:00 +20°C° 0 mm 2 mps 759 mmHg 64%
    11:00 +20°C° 0 mm 2 mps 759 mmHg 59%
    12:00 +21°C° 0 mm 2 mps 759 mmHg 54%
    13:00 +23°C° 0 mm 2 mps 758 mmHg 50%
    14:00 +23°C° 0 mm 2 mps 758 mmHg 49%
    15:00 +23°C° 0 mm 2 mps 758 mmHg 49%
    16:00 +23°C° 0 mm 2 mps 758 mmHg 49%
    17:00 +20°C° 0 mm 2 mps 758 mmHg 55%
    18:00 +18°C° 0 mm 2 mps 758 mmHg 62%
    19:00 +16°C° 0 mm 1 mps 758 mmHg 69%
    20:00 +16°C° 0 mm 2 mps 759 mmHg 75%
    21:00 +15°C° 0 mm 2 mps 759 mmHg 80%
    22:00 +14°C° 0 mm 2 mps 759 mmHg 86%
    23:00 +14°C° 0 mm 2 mps 759 mmHg 88%

    23 August, Friday

    Time Temperature Precipitation Wind Pressure Humidity
    00:00 +13°C° 0 mm 2 mps 759 mmHg 90%
    01:00 +13°C° 0 mm 2 mps 759 mmHg 92%
    02:00 +12°C° 0 mm 2 mps 759 mmHg 92%
    03:00 +12°C° 0 mm 2 mps 759 mmHg 93%
    04:00 +12°C° 0 mm 2 mps 759 mmHg 93%
    05:00 +13°C° 0 mm 1 mps 760 mmHg 87%
    06:00 +14°C° 0 mm 1 mps 760 mmHg 81%
    07:00 +16°C° 0 mm 1 mps 760 mmHg 76%
    08:00 +17°C° 0 mm 2 mps 760 mmHg 67%
    09:00 +19°C° 0 mm 2 mps 760 mmHg 59%
    10:00 +20°C° 0 mm 2 mps 760 mmHg 51%
    11:00 +21°C° 0 mm 2 mps 760 mmHg 49%
    12:00 +22°C° 0 mm 3 mps 760 mmHg 47%
    13:00 +24°C° 0 mm 3 mps 760 mmHg 44%
    14:00 +22°C° 0 mm 3 mps 760 mmHg 46%
    15:00 +22°C° 0 mm 3 mps 760 mmHg 48%
    16:00 +22°C° 0 mm 3 mps 760 mmHg 50%
    17:00 +20°C° 0 mm 2 mps 760 mmHg 58%
    18:00 +19°C° 0 mm 2 mps 760 mmHg 65%
    19:00 +17°C° 0 mm 2 mps 760 mmHg 73%
    20:00 +16°C° 0 mm 2 mps 760 mmHg 76%
    21:00 +15°C° 0 mm 2 mps 760 mmHg 80%
    22:00 +15°C° 0 mm 1 mps 761 mmHg 83%
    23:00 +14°C° 0 mm 1 mps 761 mmHg 85%
    Show more